Regional Weather Roundup
Issued by NWS Sioux Falls, SD

Home | Current Version | Previous Version | Graphics & Text | Print | Product List | Glossary On
Versions: 1 2 3 4 5 6 7 8 9 10 11 12 13 14 15 16 17 18 19 20 21 22 23 24 25 26 27 28 29 30 31 32 33 34 35 36 37 38 39 40 41 42 43 44 45 46 47 48 49 50
000
ASUS43 KFSD 281802
RWRFSD

WEATHER ROUNDUP FOR SE SOUTH DAKOTA/SW MINNESOTA/NW IOWA
NATIONAL WEATHER SERVICE SIOUX FALLS SD
100 PM CDT SAT MAR 28 2015

NOTE: "FAIR" INDICATES FEW OR NO CLOUDS BELOW 12,000 FEET WITH NO
SIGNIFICANT WEATHER AND OR OBSTRUCTIONS TO VISIBILITY.


SDZ038>040-050-052>070-281900-
SOUTHEAST SOUTH DAKOTA

CITY           SKY/WX    TMP DP  RH WIND       PRES   REMARKS
CHAMBERLAIN    NOT AVBL
HURON          SUNNY     47  29  49 S18G25    30.01F
6HR MIN TEMP:  29; 6HR MAX TEMP:  47;

MADISON        FAIR      43  27  52 S21G29    30.05F
MITCHELL       SUNNY     48  29  47 S22       30.04F
6HR MIN TEMP:  26; 6HR MAX TEMP:  48;

SIOUX FALLS    MOSUNNY   45  26  47 S20       30.09F
6HR MIN TEMP:  28; 6HR MAX TEMP:  45;

WINNER         FAIR      63  34  33 S17       29.93F
YANKTON        SUNNY     46  28  49 SE17G24   30.08F
$$

MNZ071-072-080-081-089-090-097-098-281900-
SOUTHWEST MINNESOTA

CITY           SKY/WX    TMP DP  RH WIND       PRES   REMARKS
FAIRMONT       SUNNY     39   9  28 S17G26    30.18F
JACKSON        SUNNY     41  23  48 S12G22    30.16F
LUVERNE        MOSUNNY   45  27  49 S15G22    30.11F
MARSHALL       PTSUNNY   43  25  49 S22       30.13S
6HR MIN TEMP:  28; 6HR MAX TEMP:  43;

MONTEVIDEO     MOSUNNY   43  30  61 S12G18    30.13F
PIPESTONE      MOSUNNY   41  28  60 S17       30.08F
REDWOOD FALLS  MOSUNNY   42  25  50 S18G26    30.15F
TRACY          PTSUNNY   41  31  68 S16       30.13F
WINDOM         MOSUNNY   39  27  60 S12G20    30.14F
WORTHINGTON    PTSUNNY   43  27  52 S17       30.14F
$$

IAZ001>003-012>014-020>022-031-032-NEZ013-014-SDZ071-281900-
NORTHWEST IOWA

CITY           SKY/WX    TMP DP  RH WIND       PRES   REMARKS
DENISON        SUNNY     45  25  45 S16       30.13F
ESTHERVILLE    CLOUDY    41  22  46 S22       30.17F
SIOUX CITY     SUNNY     49  25  39 S15G26    30.13F
6HR MIN TEMP:  30; 6HR MAX TEMP:  49;

SPENCER        MOSUNNY   41  27  57 S17G24    30.16F
6HR MIN TEMP:  30; 6HR MAX TEMP:  43;

$$

ABBREVIATIONS USED IN REMARKS
   TC - TEMPERATURE IN CELSIUS
  WCI - WIND CHILL INDEX
   HX - HEAT INDEX
  VSB - VISIBILITY



USA.gov is the U.S. government's official web portal to all federal, state and local government web resources and services.